When you browse on this site, cookies collect data to enhance your experience and personalize the content and advertising you see.
Visit our Privacy Policy to learn more. By continuing to use the site, you agree to this use of cookies and data.
  • în România
  • Lista ţărilor
  • Pe 7 zile
  • Temperatura apei
  • Hartă satelitară
  • Meteo pe hartă
  • Widget-uri
  • user-avatar
    Intrare

    Meteo pe oră la Dalewice

    Astăzi, 17 Iunie, Luni

    Timp Temperatura Precipitaţii Vânt Presiune Umiditate
    00:00 +18°C° 0 mm 3 m/s 744 mmHg 90%
    01:00 +18°C° 0 mm 3 m/s 745 mmHg 89%
    02:00 +18°C° 0 mm 3 m/s 745 mmHg 89%
    03:00 +18°C° 0 mm 2 m/s 745 mmHg 89%
    04:00 +17°C° 0 mm 2 m/s 745 mmHg 88%
    05:00 +17°C° 0 mm 2 m/s 745 mmHg 84%
    06:00 +18°C° 0 mm 2 m/s 746 mmHg 79%
    07:00 +18°C° 0 mm 3 m/s 746 mmHg 74%
    08:00 +19°C° 0 mm 3 m/s 746 mmHg 69%
    09:00 +20°C° 0 mm 3 m/s 746 mmHg 63%
    10:00 +21°C° 0 mm 3 m/s 746 mmHg 58%
    11:00 +22°C° 0 mm 3 m/s 746 mmHg 56%
    12:00 +24°C° 0 mm 3 m/s 746 mmHg 55%
    13:00 +25°C° 0 mm 2 m/s 746 mmHg 53%
    14:00 +25°C° 0 mm 2 m/s 745 mmHg 55%
    15:00 +25°C° 0 mm 2 m/s 745 mmHg 57%
    16:00 +25°C° 0 mm 2 m/s 745 mmHg 58%
    17:00 +24°C° 0 mm 2 m/s 745 mmHg 64%
    18:00 +23°C° 0 mm 2 m/s 745 mmHg 69%
    19:00 +21°C° 0 mm 2 m/s 745 mmHg 74%
    20:00 +20°C° 0 mm 2 m/s 745 mmHg 77%
    21:00 +19°C° 0 mm 2 m/s 745 mmHg 81%
    22:00 +18°C° 0 mm 2 m/s 745 mmHg 84%
    23:00 +18°C° 0 mm 2 m/s 745 mmHg 86%

    Mâine, 18 Iunie, Marţi

    Timp Temperatura Precipitaţii Vânt Presiune Umiditate
    00:00 +17°C° 0 mm 2 m/s 745 mmHg 88%
    01:00 +17°C° 0 mm 2 m/s 745 mmHg 91%
    02:00 +17°C° 0 mm 2 m/s 745 mmHg 92%
    03:00 +16°C° 0 mm 2 m/s 745 mmHg 93%
    04:00 +16°C° 0 mm 2 m/s 744 mmHg 95%
    05:00 +17°C° 0 mm 2 m/s 745 mmHg 91%
    06:00 +18°C° 0 mm 3 m/s 745 mmHg 88%
    07:00 +19°C° 0 mm 3 m/s 745 mmHg 84%
    08:00 +20°C° 0 mm 3 m/s 745 mmHg 82%
    09:00 +20°C° 0 mm 4 m/s 745 mmHg 80%
    10:00 +21°C° 0 mm 4 m/s 745 mmHg 78%
    11:00 +22°C° 0 mm 4 m/s 744 mmHg 76%
    12:00 +22°C° 0 mm 4 m/s 744 mmHg 74%
    13:00 +23°C° 0 mm 4 m/s 743 mmHg 72%
    14:00 +23°C° 0 mm 4 m/s 743 mmHg 74%
    15:00 +23°C° 0 mm 4 m/s 743 mmHg 76%
    16:00 +22°C° 0 mm 4 m/s 743 mmHg 78%
    17:00 +22°C° 0 mm 4 m/s 742 mmHg 81%
    18:00 +22°C° 0 mm 4 m/s 742 mmHg 83%
    19:00 +21°C° 0 mm 4 m/s 742 mmHg 86%
    20:00 +21°C° 0.3 mm 4 m/s 742 mmHg 88%
    21:00 +21°C° 0.3 mm 4 m/s 742 mmHg 91%
    22:00 +20°C° 0.3 mm 4 m/s 742 mmHg 93%
    23:00 +20°C° 0.5 mm 4 m/s 742 mmHg 94%

    Poimâine, 19 Iunie, Miercuri

    Timp Temperatura Precipitaţii Vânt Presiune Umiditate
    00:00 +19°C° 0.5 mm 3 m/s 741 mmHg 95%
    01:00 +19°C° 0.5 mm 3 m/s 741 mmHg 96%
    02:00 +18°C° 0.1 mm 2 m/s 741 mmHg 96%
    03:00 +18°C° 0.1 mm 2 m/s 741 mmHg 97%
    04:00 +19°C° 0.1 mm 1 m/s 740 mmHg 97%
    05:00 +20°C° 0 mm 1 m/s 741 mmHg 94%
    06:00 +21°C° 0 mm 1 m/s 741 mmHg 90%
    07:00 +23°C° 0 mm 1 m/s 741 mmHg 86%
    08:00 +24°C° 0.1 mm 1 m/s 741 mmHg 80%
    09:00 +24°C° 0.1 mm 0 m/s 741 mmHg 74%
    10:00 +25°C° 0.1 mm 0 m/s 740 mmHg 68%
    11:00 +28°C° 0.1 mm 1 m/s 740 mmHg 64%
    12:00 +29°C° 0.1 mm 1 m/s 740 mmHg 60%
    13:00 +30°C° 0.1 mm 1 m/s 740 mmHg 55%
    14:00 +28°C° 1.1 mm 2 m/s 740 mmHg 64%
    15:00 +26°C° 1.1 mm 3 m/s 739 mmHg 73%
    16:00 +23°C° 1.1 mm 4 m/s 739 mmHg 83%
    17:00 +24°C° 0.2 mm 3 m/s 739 mmHg 82%
    18:00 +24°C° 0.2 mm 2 m/s 739 mmHg 82%
    19:00 +23°C° 0.2 mm 1 m/s 739 mmHg 82%
    20:00 +23°C° 0 mm 1 m/s 739 mmHg 83%
    21:00 +22°C° 0 mm 1 m/s 739 mmHg 84%
    22:00 +21°C° 0 mm 1 m/s 740 mmHg 86%
    23:00 +21°C° 0 mm 1 m/s 739 mmHg 86%

    20 Iunie, Joi

    Timp Temperatura Precipitaţii Vânt Presiune Umiditate
    00:00 +20°C° 0 mm 1 m/s 739 mmHg 87%
    01:00 +20°C° 0 mm 1 m/s 739 mmHg 88%
    02:00 +18°C° 0 mm 0 m/s 739 mmHg 87%
    03:00 +18°C° 0 mm 0 m/s 739 mmHg 87%
    04:00 +18°C° 0 mm 0 m/s 739 mmHg 86%
    05:00 +19°C° 0.1 mm 0 m/s 739 mmHg 84%
    06:00 +20°C° 0.1 mm 0 m/s 740 mmHg 82%
    07:00 +23°C° 0.1 mm 1 m/s 740 mmHg 79%
    08:00 +25°C° 0.3 mm 1 m/s 740 mmHg 75%
    09:00 +26°C° 0.3 mm 1 m/s 740 mmHg 71%
    10:00 +27°C° 0.3 mm 1 m/s 740 mmHg 67%
    11:00 +28°C° 0.4 mm 1 m/s 740 mmHg 64%
    12:00 +29°C° 0.4 mm 1 m/s 740 mmHg 60%
    13:00 +30°C° 0.4 mm 1 m/s 740 mmHg 57%
    14:00 +29°C° 1 mm 1 m/s 739 mmHg 60%
    15:00 +29°C° 1 mm 1 m/s 739 mmHg 62%
    16:00 +29°C° 1 mm 1 m/s 739 mmHg 65%
    17:00 +28°C° 0.4 mm 1 m/s 739 mmHg 70%
    18:00 +26°C° 0.4 mm 1 m/s 739 mmHg 75%
    19:00 +25°C° 0.4 mm 1 m/s 739 mmHg 79%
    20:00 +24°C° 0.7 mm 1 m/s 740 mmHg 82%
    21:00 +23°C° 0.7 mm 1 m/s 740 mmHg 86%
    22:00 +22°C° 0.7 mm 1 m/s 740 mmHg 89%
    23:00 +21°C° 0.1 mm 1 m/s 740 mmHg 89%

    21 Iunie, Vineri

    Timp Temperatura Precipitaţii Vânt Presiune Umiditate
    00:00 +21°C° 0.1 mm 1 m/s 740 mmHg 90%
    01:00 +19°C° 0.1 mm 0 m/s 740 mmHg 90%
    02:00 +18°C° 0 mm 0 m/s 739 mmHg 91%
    03:00 +20°C° 0 mm 1 m/s 739 mmHg 91%
    04:00 +20°C° 0 mm 1 m/s 739 mmHg 92%
    05:00 +21°C° 0 mm 1 m/s 740 mmHg 88%
    06:00 +23°C° 0 mm 1 m/s 740 mmHg 84%
    07:00 +24°C° 0 mm 1 m/s 740 mmHg 81%
    08:00 +26°C° 0.1 mm 1 m/s 740 mmHg 75%
    09:00 +27°C° 0.1 mm 2 m/s 740 mmHg 69%
    10:00 +28°C° 0.1 mm 2 m/s 740 mmHg 63%
    11:00 +29°C° 0 mm 2 m/s 740 mmHg 60%
    12:00 +30°C° 0 mm 2 m/s 740 mmHg 57%
    13:00 +31°C° 0 mm 2 m/s 739 mmHg 54%
    14:00 +30°C° 0.3 mm 2 m/s 739 mmHg 58%
    15:00 +29°C° 0.3 mm 3 m/s 739 mmHg 62%
    16:00 +28°C° 0.3 mm 3 m/s 739 mmHg 67%
    17:00 +26°C° 1.4 mm 3 m/s 739 mmHg 73%
    18:00 +24°C° 1.4 mm 3 m/s 739 mmHg 80%
    19:00 +20°C° 1.4 mm 3 m/s 739 mmHg 87%
    20:00 +20°C° 0.6 mm 3 m/s 739 mmHg 87%
    21:00 +20°C° 0.6 mm 2 m/s 739 mmHg 88%
    22:00 +21°C° 0.6 mm 1 m/s 740 mmHg 88%
    23:00 +21°C° 0.1 mm 1 m/s 739 mmHg 88%

    22 Iunie, Sâmbătă

    Timp Temperatura Precipitaţii Vânt Presiune Umiditate
    00:00 +21°C° 0.1 mm 1 m/s 739 mmHg 88%
    01:00 +18°C° 0.1 mm 0 m/s 739 mmHg 88%
    02:00 +18°C° 0 mm 0 m/s 739 mmHg 89%
    03:00 +18°C° 0 mm 0 m/s 739 mmHg 89%
    04:00 +18°C° 0 mm 0 m/s 739 mmHg 89%
    05:00 +19°C° 0 mm 0 m/s 739 mmHg 86%
    06:00 +22°C° 0 mm 1 m/s 740 mmHg 83%
    07:00 +24°C° 0 mm 1 m/s 740 mmHg 80%
    08:00 +25°C° 0.2 mm 1 m/s 740 mmHg 75%
    09:00 +26°C° 0.2 mm 1 m/s 739 mmHg 71%
    10:00 +28°C° 0.2 mm 1 m/s 739 mmHg 66%
    11:00 +28°C° 0.4 mm 1 m/s 739 mmHg 63%
    12:00 +29°C° 0.4 mm 1 m/s 739 mmHg 59%
    13:00 +30°C° 0.4 mm 1 m/s 739 mmHg 55%
    14:00 +30°C° 0 mm 1 m/s 739 mmHg 55%
    15:00 +30°C° 0 mm 1 m/s 738 mmHg 55%
    16:00 +30°C° 0 mm 1 m/s 738 mmHg 54%
    17:00 +29°C° 0.4 mm 1 m/s 738 mmHg 61%
    18:00 +27°C° 0.4 mm 1 m/s 738 mmHg 68%
    19:00 +26°C° 0.4 mm 1 m/s 739 mmHg 75%
    20:00 +25°C° 1.2 mm 1 m/s 739 mmHg 78%
    21:00 +23°C° 1.2 mm 1 m/s 739 mmHg 81%
    22:00 +22°C° 1.2 mm 1 m/s 739 mmHg 85%
    23:00 +22°C° 0 mm 1 m/s 739 mmHg 86%
    Arată mai mult